| time (UTC) | temp F | wind direction | speed knots | gust knots | rain 1hr in | rain 24hr in | rain mn in | humidity % | barometer mb |
| 20260903123517 | 73 | 282 | 0.9 | 2.6 | 0.00 | 0.00 | 0.00 | 95 | 1012.2 |
| 20260903123017 | 73 | 0.0 | 2.6 | 0.00 | 0.00 | 0.00 | 96 | 1012.2 | |
| 20260903122518 | 73 | 212 | 0.0 | 2.6 | 0.00 | 0.00 | 0.00 | 96 | 1012.2 |
| 20260903122017 | 73 | 198 | 0.0 | 2.6 | 0.00 | 0.00 | 0.00 | 96 | 1012.3 |
| 20260903121517 | 73 | 185 | 0.0 | 2.6 | 0.00 | 0.00 | 0.00 | 96 | 1012.4 |
| 20260903121017 | 72 | 167 | 0.0 | 2.6 | 0.00 | 0.00 | 0.00 | 96 | 1012.6 |
| 20260903120517 | 72 | 123 | 0.0 | 1.7 | 0.00 | 0.00 | 0.00 | 95 | 1012.6 |
| 20260903120017 | 72 | 139 | 0.0 | 1.7 | 0.00 | 0.00 | 0.00 | 96 | 1012.7 |
| 20260903115537 | 72 | 92 | 0.0 | 2.6 | 0.00 | 0.00 | 0.00 | 96 | 1012.6 |
| 20260903115017 | 72 | 79 | 0.9 | 2.6 | 0.00 | 0.00 | 0.00 | 96 | 1012.5 |
| 20260903114518 | 71 | 102 | 0.0 | 1.7 | 0.00 | 0.01 | 0.00 | 95 | 1012.6 |
| 20260903114018 | 71 | 91 | 0.0 | 1.7 | 0.00 | 0.01 | 0.00 | 95 | 1012.6 |
| 20260903113517 | 71 | 91 | 0.0 | 2.6 | 0.00 | 0.01 | 0.00 | 95 | 1012.5 |
| 20260903113017 | 71 | 96 | 0.9 | 2.6 | 0.00 | 0.01 | 0.00 | 95 | 1012.4 |
| 20260903112517 | 71 | 110 | 0.9 | 2.6 | 0.00 | 0.01 | 0.00 | 95 | 1012.4 |
| 20260903112017 | 71 | 127 | 0.0 | 1.7 | 0.00 | 0.01 | 0.00 | 95 | 1012.4 |
| 20260903111517 | 72 | 0.0 | 0.9 | 0.00 | 0.01 | 0.00 | 95 | 1012.2 | |
| 20260903111017 | 72 | 127 | 0.0 | 1.7 | 0.00 | 0.01 | 0.00 | 95 | 1012.1 |
| 20260903110517 | 72 | 127 | 0.9 | 2.6 | 0.00 | 0.01 | 0.00 | 95 | 1012.2 |
| 20260903110018 | 71 | 130 | 0.9 | 3.5 | 0.00 | 0.01 | 0.00 | 95 | 1012.2 |
| 20260903105537 | 71 | 125 | 0.9 | 3.5 | 0.00 | 0.01 | 0.00 | 95 | 1012.2 |
| 20260903105017 | 71 | 110 | 0.0 | 0.9 | 0.00 | 0.01 | 0.00 | 95 | 1012.2 |
| 20260903104517 | 71 | 0.0 | 0.0 | 0.00 | 0.01 | 0.00 | 95 | 1012.1 | |
| 20260903104100 | 71 | 0.0 | 0.0 | 0.00 | 0.01 | 0.00 | 95 | 1012.2 | |
| 20260903103517 | 71 | 0.0 | 0.0 | 0.00 | 0.01 | 0.00 | 95 | 1012.3 | |
| 20260903103017 | 71 | 0.0 | 0.0 | 0.00 | 0.01 | 0.00 | 95 | 1012.3 | |
| 20260903102518 | 71 | 0.0 | 0.0 | 0.00 | 0.01 | 0.00 | 95 | 1012.3 | |
| 20260903102018 | 71 | 0.0 | 0.0 | 0.00 | 0.01 | 0.00 | 95 | 1012.3 | |
| 20260903101538 | 71 | 0.0 | 0.0 | 0.00 | 0.01 | 0.00 | 95 | 1012.3 | |
| 20260903101017 | 71 | 0.0 | 0.0 | 0.00 | 0.01 | 0.00 | 95 | 1012.2 | |
| 20260903100517 | 71 | 0.0 | 0.0 | 0.00 | 0.01 | 0.00 | 95 | 1012.2 | |
| 20260903100016 | 71 | 0.0 | 0.0 | 0.00 | 0.01 | 0.00 | 95 | 1012.3 | |
| 20260903095517 | 71 | 0.0 | 0.0 | 0.00 | 0.01 | 0.00 | 95 | 1012.2 | |
| 20260903095017 | 71 | 0.0 | 0.0 | 0.00 | 0.01 | 0.00 | 94 | 1012.2 | |
| 20260903094516 | 71 | 0.0 | 0.0 | 0.00 | 0.01 | 0.00 | 94 | 1012.1 | |
| 20260903094016 | 71 | 0.0 | 0.0 | 0.00 | 0.01 | 0.00 | 94 | 1012.1 | |
| 20260903093517 | 71 | 0.0 | 0.9 | 0.00 | 0.01 | 0.00 | 95 | 1012.1 | |
| 20260903093017 | 71 | 100 | 0.0 | 0.9 | 0.00 | 0.01 | 0.00 | 95 | 1012.1 |
| 20260903092517 | 71 | 100 | 0.0 | 0.9 | 0.00 | 0.01 | 0.00 | 95 | 1012.0 |
| 20260903092018 | 71 | 100 | 0.0 | 0.9 | 0.00 | 0.01 | 0.00 | 95 | 1012.0 |
| 20260903091517 | 71 | 100 | 0.0 | 0.9 | 0.00 | 0.01 | 0.00 | 95 | 1012.1 |
| 20260903091018 | 71 | 100 | 0.0 | 1.7 | 0.00 | 0.01 | 0.00 | 94 | 1012.0 |
| 20260903090516 | 71 | 100 | 0.9 | 1.7 | 0.00 | 0.01 | 0.00 | 94 | 1012.1 |
| 20260903090017 | 71 | 100 | 0.0 | 2.6 | 0.00 | 0.01 | 0.00 | 94 | 1012.1 |
| 20260903085518 | 71 | 104 | 0.0 | 2.6 | 0.00 | 0.01 | 0.00 | 94 | 1012.1 |
| 20260903085017 | 71 | 121 | 0.0 | 1.7 | 0.00 | 0.01 | 0.00 | 94 | 1012.1 |
| 20260903084516 | 71 | 122 | 0.0 | 1.7 | 0.00 | 0.01 | 0.00 | 94 | 1012.0 |
| 20260903084016 | 71 | 122 | 0.0 | 1.7 | 0.00 | 0.01 | 0.00 | 94 | 1012.1 |
| 20260903083517 | 72 | 0.0 | 0.0 | 0.00 | 0.01 | 0.00 | 94 | 1012.0 | |
| 20260903083038 | 72 | 0.0 | 0.0 | 0.00 | 0.01 | 0.00 | 94 | 1012.1 | |
| 20260903082516 | 72 | 0.0 | 0.0 | 0.00 | 0.01 | 0.00 | 94 | 1012.2 | |
| 20260903082016 | 72 | 0.0 | 0.9 | 0.00 | 0.01 | 0.00 | 94 | 1012.1 | |
| 20260903081516 | 72 | 122 | 0.0 | 1.7 | 0.00 | 0.01 | 0.00 | 94 | 1012.1 |
| 20260903081016 | 72 | 121 | 0.9 | 1.7 | 0.00 | 0.01 | 0.00 | 94 | 1012.0 |
| 20260903080518 | 72 | 121 | 0.9 | 1.7 | 0.00 | 0.01 | 0.00 | 94 | 1012.1 |
| 20260903080036 | 72 | 122 | 0.9 | 1.7 | 0.00 | 0.01 | 0.00 | 94 | 1012.1 |
| 20260903075537 | 72 | 121 | 0.9 | 1.7 | 0.00 | 0.01 | 0.00 | 94 | 1012.1 |
| 20260903075016 | 72 | 122 | 0.0 | 0.9 | 0.00 | 0.01 | 0.00 | 93 | 1012.1 |
| 20260903074516 | 72 | 0.0 | 0.0 | 0.00 | 0.01 | 0.00 | 93 | 1012.0 | |
| 20260903074017 | 72 | 0.0 | 0.9 | 0.00 | 0.01 | 0.00 | 93 | 1012.0 | |
| 20260903073537 | 72 | 122 | 0.0 | 1.7 | 0.00 | 0.01 | 0.00 | 93 | 1012.0 |
| 20260903073018 | 72 | 121 | 0.9 | 1.7 | 0.00 | 0.01 | 0.00 | 93 | 1012.0 |
| 20260903072516 | 72 | 121 | 0.9 | 1.7 | 0.00 | 0.01 | 0.00 | 93 | 1012.0 |
| 20260903072016 | 73 | 122 | 0.0 | 0.9 | 0.00 | 0.01 | 0.00 | 93 | 1012.0 |
| 20260903071516 | 73 | 0.0 | 0.9 | 0.00 | 0.01 | 0.00 | 93 | 1011.9 | |
| 20260903071036 | 73 | 122 | 0.0 | 0.9 | 0.00 | 0.01 | 0.00 | 93 | 1011.9 |
| 20260903070517 | 73 | 121 | 0.0 | 1.7 | 0.00 | 0.01 | 0.00 | 93 | 1011.9 |
| 20260903070017 | 73 | 121 | 0.9 | 2.6 | 0.00 | 0.01 | 0.00 | 93 | 1012.0 |
| 20260903065516 | 73 | 122 | 0.9 | 2.6 | 0.00 | 0.01 | 0.00 | 93 | 1011.9 |
| 20260903065036 | 73 | 148 | 0.9 | 1.7 | 0.00 | 0.01 | 0.00 | 93 | 1012.0 |
| 20260903064516 | 73 | 0.0 | 0.0 | 0.00 | 0.01 | 0.00 | 93 | 1012.0 | |
| 20260903064016 | 73 | 0.0 | 1.7 | 0.00 | 0.01 | 0.00 | 93 | 1012.0 | |
| 20260903063536 | 73 | 148 | 0.0 | 1.7 | 0.00 | 0.01 | 0.00 | 92 | 1011.9 |
| 20260903063016 | 73 | 148 | 0.0 | 1.7 | 0.00 | 0.01 | 0.00 | 92 | 1011.9 |
| 20260903062538 | 74 | 148 | 0.9 | 1.7 | 0.00 | 0.01 | 0.00 | 92 | 1011.9 |
| 20260903062016 | 74 | 148 | 0.9 | 1.7 | 0.00 | 0.01 | 0.00 | 92 | 1011.9 |
| 20260903061558 | 74 | 148 | 0.9 | 1.7 | 0.00 | 0.01 | 0.00 | 92 | 1011.8 |
| 20260903061016 | 74 | 157 | 0.0 | 1.7 | 0.00 | 0.01 | 0.00 | 92 | 1011.8 |
| 20260903060617 | 74 | 0.0 | 0.0 | 0.00 | 0.01 | 0.00 | 92 | 1011.8 | |
| 20260903060016 | 74 | 0.0 | 0.0 | 0.00 | 0.01 | 0.00 | 92 | 1011.8 | |
| 20260903055516 | 74 | 0.0 | 0.0 | 0.00 | 0.01 | 0.00 | 92 | 1011.9 | |
| 20260903055016 | 74 | 0.0 | 0.0 | 0.00 | 0.01 | 0.00 | 92 | 1011.8 | |
| 20260903054516 | 74 | 0.0 | 0.0 | 0.00 | 0.01 | 0.00 | 92 | 1011.8 | |
| 20260903054016 | 74 | 0.0 | 0.0 | 0.00 | 0.01 | 0.00 | 92 | 1011.7 | |
| 20260903053516 | 74 | 0.0 | 0.0 | 0.00 | 0.01 | 0.00 | 91 | 1011.7 | |
| 20260903053017 | 74 | 0.0 | 0.0 | 0.00 | 0.01 | 0.00 | 91 | 1011.8 | |
| 20260903052516 | 74 | 0.0 | 1.7 | 0.00 | 0.01 | 0.00 | 92 | 1011.7 | |
| 20260903052016 | 74 | 241 | 0.0 | 1.7 | 0.00 | 0.01 | 0.00 | 92 | 1011.7 |
| 20260903051517 | 74 | 241 | 0.0 | 1.7 | 0.00 | 0.01 | 0.00 | 92 | 1011.6 |
| 20260903051016 | 74 | 239 | 0.0 | 1.7 | 0.00 | 0.01 | 0.00 | 92 | 1011.7 |
| 20260903050516 | 75 | 0.0 | 0.0 | 0.00 | 0.01 | 0.00 | 92 | 1011.7 | |
| 20260903050017 | 75 | 0.0 | 0.9 | 0.00 | 0.01 | 0.00 | 92 | 1011.6 | |
| 20260903045516 | 75 | 97 | 0.0 | 1.7 | 0.00 | 0.01 | 0.00 | 92 | 1011.7 |
| 20260903045016 | 75 | 98 | 0.0 | 1.7 | 0.00 | 0.01 | 0.00 | 92 | 1011.7 |
| 20260903044516 | 75 | 0.0 | 0.0 | 0.00 | 0.01 | 0.00 | 91 | 1011.5 | |
| 20260903044016 | 75 | 0.0 | 0.0 | 0.00 | 0.01 | 0.00 | 92 | 1011.5 | |
| 20260903043517 | 75 | 0.0 | 0.0 | 0.00 | 0.01 | 0.00 | 92 | 1011.4 | |
| 20260903043016 | 75 | 0.0 | 0.0 | 0.00 | 0.01 | 0.00 | 92 | 1011.4 | |
| 20260903042516 | 75 | 0.0 | 0.0 | 0.00 | 0.01 | 0.00 | 92 | 1011.4 | |
| 20260903042016 | 75 | 0.0 | 0.0 | 0.00 | 0.01 | 0.00 | 92 | 1011.4 | |
| 20260903041516 | 75 | 0.0 | 0.0 | 0.00 | 0.01 | 0.00 | 92 | 1011.4 | |
| 20260903041016 | 75 | 0.0 | 0.9 | 0.00 | 0.01 | 0.00 | 92 | 1011.4 | |
| 20260903040516 | 75 | 98 | 0.0 | 1.7 | 0.00 | 0.01 | 0.00 | 91 | 1011.4 |
| 20260903040016 | 75 | 98 | 0.0 | 1.7 | 0.00 | 0.01 | 0.01 | 91 | 1011.3 |
| 20260903035517 | 75 | 98 | 0.0 | 0.9 | 0.00 | 0.02 | 0.01 | 91 | 1011.3 |
| 20260903035017 | 76 | 98 | 0.0 | 0.9 | 0.00 | 0.02 | 0.01 | 91 | 1011.3 |
| 20260903034518 | 76 | 0.0 | 0.0 | 0.00 | 0.02 | 0.01 | 91 | 1011.3 | |
| 20260903034016 | 76 | 0.0 | 1.7 | 0.00 | 0.02 | 0.01 | 90 | 1011.3 | |
| 20260903033516 | 76 | 98 | 0.0 | 1.7 | 0.00 | 0.02 | 0.01 | 90 | 1011.1 |
| 20260903033016 | 76 | 0.0 | 0.9 | 0.00 | 0.02 | 0.01 | 90 | 1011.2 | |
| 20260903032517 | 76 | 98 | 0.0 | 1.7 | 0.00 | 0.02 | 0.01 | 90 | 1011.3 |
| 20260903032016 | 76 | 98 | 0.0 | 1.7 | 0.00 | 0.02 | 0.01 | 90 | 1011.2 |
| 20260903031516 | 76 | 0.0 | 1.7 | 0.00 | 0.02 | 0.01 | 89 | 1011.4 | |
| 20260903031016 | 76 | 97 | 0.0 | 1.7 | 0.00 | 0.02 | 0.01 | 89 | 1011.4 |
| 20260903030518 | 77 | 98 | 0.9 | 1.7 | 0.00 | 0.02 | 0.01 | 89 | 1011.3 |
| 20260903030016 | 77 | 98 | 0.0 | 1.7 | 0.00 | 0.02 | 0.01 | 88 | 1011.3 |
| 20260903025516 | 77 | 104 | 0.0 | 1.7 | 0.00 | 0.02 | 0.01 | 88 | 1011.4 |
| 20260903025016 | 77 | 138 | 0.0 | 1.7 | 0.00 | 0.02 | 0.01 | 87 | 1011.5 |
| 20260903024536 | 78 | 143 | 0.0 | 1.7 | 0.00 | 0.02 | 0.01 | 87 | 1011.4 |
| 20260903024017 | 78 | 292 | 0.9 | 1.7 | 0.00 | 0.02 | 0.01 | 87 | 1011.5 |
| 20260903023517 | 78 | 292 | 0.9 | 1.7 | 0.00 | 0.02 | 0.01 | 85 | 1011.4 |
| 20260903023016 | 78 | 292 | 0.0 | 1.7 | 0.00 | 0.02 | 0.01 | 84 | 1011.4 |
| 20260903022516 | 78 | 0.0 | 0.0 | 0.00 | 0.02 | 0.01 | 84 | 1011.4 | |
| 20260903022036 | 79 | 0.0 | 0.9 | 0.00 | 0.02 | 0.01 | 84 | 1011.5 | |
| 20260903021517 | 79 | 292 | 0.0 | 1.7 | 0.00 | 0.02 | 0.01 | 84 | 1011.5 |
| 20260903021016 | 79 | 292 | 0.0 | 1.7 | 0.00 | 0.02 | 0.01 | 84 | 1011.5 |
| 20260903020516 | 79 | 0.0 | 0.0 | 0.00 | 0.02 | 0.01 | 84 | 1011.3 | |
| 20260903020018 | 79 | 0.0 | 0.9 | 0.00 | 0.02 | 0.01 | 83 | 1011.4 | |
| 20260903015516 | 79 | 323 | 0.0 | 1.7 | 0.00 | 0.02 | 0.01 | 83 | 1011.3 |
| 20260903015016 | 80 | 323 | 0.0 | 1.7 | 0.00 | 0.02 | 0.01 | 83 | 1011.3 |
| 20260903014516 | 80 | 322 | 0.9 | 1.7 | 0.00 | 0.02 | 0.01 | 83 | 1011.3 |
| 20260903014017 | 80 | 310 | 0.0 | 1.7 | 0.00 | 0.02 | 0.01 | 83 | 1011.3 |
| 20260903013516 | 80 | 311 | 0.0 | 2.6 | 0.00 | 0.02 | 0.01 | 83 | 1011.3 |
| 20260903013057 | 80 | 325 | 0.9 | 2.6 | 0.00 | 0.02 | 0.01 | 84 | 1011.1 |
| 20260903012517 | 79 | 299 | 0.9 | 3.5 | 0.00 | 0.02 | 0.01 | 84 | 1011.1 |
| 20260903012016 | 79 | 267 | 0.0 | 3.5 | 0.00 | 0.02 | 0.01 | 84 | 1011.0 |
| 20260903011516 | 80 | 0.0 | 0.0 | 0.00 | 0.02 | 0.01 | 84 | 1010.9 | |
| 20260903011018 | 80 | 0.0 | 0.0 | 0.00 | 0.02 | 0.01 | 84 | 1010.9 | |
| 20260903010516 | 80 | 0.0 | 0.0 | 0.00 | 0.02 | 0.01 | 83 | 1010.9 | |
| 20260903010016 | 81 | 0.0 | 0.0 | 0.00 | 0.03 | 0.01 | 82 | 1010.8 | |
| 20260903005536 | 81 | 0.0 | 0.0 | 0.00 | 0.03 | 0.01 | 82 | 1010.8 | |
| 20260903005037 | 81 | 0.0 | 0.0 | 0.00 | 0.03 | 0.01 | 82 | 1010.8 | |
| 20260903004516 | 82 | 0.0 | 0.0 | 0.00 | 0.03 | 0.01 | 82 | 1010.6 | |
| 20260903004016 | 82 | 0.0 | 0.0 | 0.00 | 0.03 | 0.01 | 81 | 1010.5 | |
| 20260903003518 | 82 | 0.0 | 0.0 | 0.00 | 0.03 | 0.01 | 80 | 1010.5 | |
| 20260903003016 | 83 | 0.0 | 0.0 | 0.00 | 0.03 | 0.01 | 80 | 1010.5 | |
| 20260903002538 | 83 | 0.0 | 0.0 | 0.00 | 0.03 | 0.01 | 79 | 1010.4 | |
| 20260903002016 | 83 | 0.0 | 0.0 | 0.00 | 0.03 | 0.01 | 79 | 1010.4 | |
| 20260903001516 | 84 | 0.0 | 0.0 | 0.00 | 0.03 | 0.01 | 78 | 1010.4 | |
| 20260903001016 | 84 | 0.0 | 0.0 | 0.00 | 0.03 | 0.01 | 77 | 1010.5 | |
| 20260903000516 | 84 | 0.0 | 0.0 | 0.00 | 0.03 | 0.01 | 77 | 1010.5 | |
| 20260903000016 | 85 | 0.0 | 0.0 | 0.00 | 0.04 | 0.01 | 76 | 1010.5 | |
| 20260902235517 | 85 | 0.0 | 0.0 | 0.00 | 0.04 | 0.01 | 76 | 1010.7 | |
| 20260902235016 | 85 | 0.0 | 0.0 | 0.00 | 0.04 | 0.01 | 76 | 1010.6 | |
| 20260902234516 | 86 | 0.0 | 0.0 | 0.00 | 0.04 | 0.01 | 75 | 1010.5 | |
| 20260902234016 | 86 | 0.0 | 0.0 | 0.00 | 0.04 | 0.01 | 74 | 1010.5 | |
| 20260902233517 | 86 | 0.0 | 0.0 | 0.00 | 0.04 | 0.01 | 74 | 1010.6 | |
| 20260902233016 | 86 | 0.0 | 0.0 | 0.00 | 0.04 | 0.01 | 73 | 1010.5 | |
| 20260902232516 | 86 | 0.0 | 0.0 | 0.00 | 0.04 | 0.01 | 73 | 1010.5 | |
| 20260902232016 | 86 | 0.0 | 0.0 | 0.00 | 0.04 | 0.01 | 72 | 1010.5 | |
| 20260902231516 | 87 | 0.0 | 0.0 | 0.00 | 0.05 | 0.01 | 70 | 1010.4 | |
| 20260902231016 | 87 | 0.0 | 0.9 | 0.00 | 0.05 | 0.01 | 71 | 1010.5 | |
| 20260902230517 | 87 | 269 | 0.0 | 0.9 | 0.00 | 0.05 | 0.01 | 72 | 1010.6 |
| 20260902230016 | 87 | 0.0 | 0.9 | 0.00 | 0.05 | 0.01 | 71 | 1010.6 | |
| 20260902225536 | 87 | 269 | 0.0 | 1.7 | 0.00 | 0.05 | 0.01 | 70 | 1010.6 |
| 20260902225016 | 87 | 269 | 0.0 | 1.7 | 0.00 | 0.05 | 0.01 | 70 | 1010.6 |
| 20260902224517 | 87 | 268 | 0.0 | 2.6 | 0.00 | 0.05 | 0.01 | 67 | 1010.6 |
| 20260902224017 | 87 | 263 | 0.9 | 2.6 | 0.00 | 0.05 | 0.01 | 68 | 1010.7 |
| 20260902223516 | 87 | 258 | 0.9 | 3.5 | 0.00 | 0.05 | 0.01 | 67 | 1010.7 |
| 20260902223016 | 87 | 263 | 0.9 | 3.5 | 0.00 | 0.05 | 0.01 | 66 | 1010.8 |
| 20260902222537 | 87 | 255 | 1.7 | 3.5 | 0.00 | 0.05 | 0.01 | 66 | 1010.8 |
| 20260902222016 | 88 | 249 | 1.7 | 3.5 | 0.00 | 0.05 | 0.01 | 65 | 1010.8 |
| 20260902221516 | 88 | 245 | 1.7 | 4.3 | 0.00 | 0.05 | 0.01 | 65 | 1010.7 |
| 20260902221016 | 88 | 245 | 1.7 | 4.3 | 0.00 | 0.05 | 0.01 | 64 | 1010.7 |
| 20260902220516 | 88 | 239 | 2.6 | 7.8 | 0.00 | 0.05 | 0.01 | 63 | 1010.7 |
| 20260902220017 | 88 | 248 | 3.5 | 8.7 | 0.00 | 0.05 | 0.01 | 63 | 1010.7 |
| 20260902215516 | 89 | 246 | 4.3 | 8.7 | 0.00 | 0.05 | 0.01 | 62 | 1010.7 |
| 20260902215016 | 89 | 236 | 2.6 | 10.4 | 0.00 | 0.05 | 0.01 | 62 | 1010.7 |
| 20260902214516 | 89 | 243 | 6.1 | 11.3 | 0.00 | 0.05 | 0.01 | 61 | 1010.7 |
| 20260902214016 | 89 | 227 | 6.1 | 11.3 | 0.00 | 0.05 | 0.01 | 59 | 1010.7 |
| 20260902213516 | 90 | 229 | 4.3 | 13.9 | 0.00 | 0.05 | 0.01 | 59 | 1010.6 |
| 20260902213016 | 90 | 229 | 7.0 | 13.9 | 0.00 | 0.05 | 0.01 | 58 | 1010.6 |
| 20260902212516 | 90 | 223 | 5.2 | 11.3 | 0.00 | 0.05 | 0.01 | 60 | 1010.7 |
| 20260902212017 | 90 | 225 | 6.1 | 11.3 | 0.00 | 0.06 | 0.01 | 59 | 1010.7 |
| 20260902211517 | 90 | 223 | 4.3 | 9.6 | 0.00 | 0.06 | 0.01 | 60 | 1010.7 |
| 20260902211016 | 90 | 221 | 3.5 | 9.6 | 0.00 | 0.06 | 0.01 | 60 | 1010.6 |
| 20260902210516 | 90 | 244 | 5.2 | 9.6 | 0.00 | 0.06 | 0.01 | 57 | 1010.7 |
| 20260902210016 | 90 | 222 | 5.2 | 13.9 | 0.00 | 0.06 | 0.01 | 59 | 1010.8 |
| 20260902205517 | 90 | 234 | 7.8 | 13.9 | 0.00 | 0.06 | 0.01 | 57 | 1010.8 |
| 20260902205016 | 90 | 231 | 7.8 | 16.5 | 0.00 | 0.06 | 0.01 | 55 | 1010.8 |
| 20260902204516 | 90 | 228 | 8.7 | 17.4 | 0.00 | 0.06 | 0.01 | 56 | 1011.0 |
| 20260902204016 | 91 | 234 | 7.8 | 17.4 | 0.00 | 0.06 | 0.01 | 58 | 1010.9 |
| 20260902203516 | 91 | 218 | 5.2 | 10.4 | 0.00 | 0.06 | 0.01 | 59 | 1010.8 |
| 20260902203016 | 90 | 208 | 6.1 | 10.4 | 0.00 | 0.06 | 0.01 | 58 | 1010.9 |
| 20260902202516 | 90 | 211 | 5.2 | 10.4 | 0.00 | 0.06 | 0.01 | 58 | 1010.9 |
| 20260902202016 | 90 | 214 | 6.1 | 14.8 | 0.00 | 0.06 | 0.01 | 58 | 1011.0 |
| 20260902201515 | 90 | 232 | 6.1 | 14.8 | 0.00 | 0.06 | 0.01 | 59 | 1011.1 |
| 20260902201016 | 90 | 233 | 4.3 | 10.4 | 0.00 | 0.06 | 0.01 | 58 | 1011.2 |
| 20260902200515 | 90 | 219 | 5.2 | 17.4 | 0.00 | 0.06 | 0.01 | 57 | 1011.2 |
| 20260902200017 | 90 | 229 | 7.0 | 17.4 | 0.00 | 0.06 | 0.01 | 55 | 1011.2 |
| 20260902195516 | 90 | 224 | 4.3 | 10.4 | 0.00 | 0.06 | 0.01 | 57 | 1011.3 |
| 20260902195035 | 90 | 215 | 6.1 | 13.0 | 0.00 | 0.06 | 0.01 | 59 | 1011.3 |
| 20260902194515 | 90 | 225 | 6.1 | 13.0 | 0.00 | 0.06 | 0.01 | 58 | 1011.4 |
| 20260902194017 | 90 | 209 | 5.2 | 10.4 | 0.00 | 0.06 | 0.01 | 57 | 1011.4 |
| 20260902193516 | 90 | 213 | 5.2 | 18.2 | 0.00 | 0.06 | 0.01 | 59 | 1011.5 |
| 20260902193017 | 90 | 187 | 7.8 | 18.2 | 0.00 | 0.06 | 0.01 | 57 | 1011.4 |
| 20260902192515 | 90 | 186 | 6.1 | 14.8 | 0.00 | 0.06 | 0.01 | 58 | 1011.6 |
| 20260902192015 | 90 | 215 | 6.1 | 11.3 | 0.00 | 0.06 | 0.01 | 59 | 1011.7 |
| 20260902191515 | 90 | 198 | 6.1 | 11.3 | 0.00 | 0.06 | 0.01 | 58 | 1011.8 |
| 20260902191016 | 90 | 195 | 6.1 | 11.3 | 0.00 | 0.06 | 0.01 | 59 | 1011.9 |
| 20260902190516 | 90 | 201 | 5.2 | 10.4 | 0.00 | 0.06 | 0.01 | 61 | 1012.1 |
| 20260902190035 | 90 | 213 | 4.3 | 11.3 | 0.00 | 0.06 | 0.01 | 61 | 1012.1 |
| 20260902185515 | 89 | 224 | 6.1 | 11.3 | 0.00 | 0.06 | 0.01 | 61 | 1012.3 |
| 20260902185016 | 89 | 212 | 6.1 | 12.2 | 0.00 | 0.06 | 0.01 | 61 | 1012.3 |
| 20260902184515 | 89 | 191 | 5.2 | 12.2 | 0.00 | 0.06 | 0.01 | 62 | 1012.3 |
| 20260902184016 | 89 | 245 | 5.2 | 10.4 | 0.00 | 0.06 | 0.01 | 60 | 1012.4 |
| 20260902183516 | 89 | 217 | 7.0 | 12.2 | 0.00 | 0.06 | 0.01 | 61 | 1012.5 |
| 20260902183035 | 89 | 231 | 6.1 | 13.0 | 0.00 | 0.06 | 0.01 | 61 | 1012.5 |
| 20260902182515 | 89 | 230 | 7.8 | 13.0 | 0.00 | 0.06 | 0.01 | 61 | 1012.6 |
| 20260902182015 | 89 | 233 | 5.2 | 13.9 | 0.00 | 0.06 | 0.01 | 64 | 1012.6 |
| 20260902181515 | 88 | 232 | 6.1 | 13.9 | 0.00 | 0.06 | 0.01 | 63 | 1012.7 |
| 20260902181036 | 88 | 248 | 5.2 | 10.4 | 0.00 | 0.06 | 0.01 | 61 | 1012.6 |
| 20260902180515 | 88 | 240 | 7.0 | 10.4 | 0.00 | 0.06 | 0.01 | 62 | 1012.7 |
| 20260902180036 | 88 | 237 | 4.3 | 8.7 | 0.00 | 0.06 | 0.01 | 66 | 1012.7 |
| 20260902175516 | 87 | 267 | 3.5 | 11.3 | 0.00 | 0.06 | 0.01 | 64 | 1012.7 |
| 20260902175015 | 87 | 248 | 7.8 | 11.3 | 0.00 | 0.06 | 0.01 | 64 | 1012.8 |
| 20260902174515 | 87 | 230 | 3.5 | 9.6 | 0.00 | 0.06 | 0.01 | 66 | 1012.9 |
| 20260902174035 | 87 | 219 | 6.1 | 9.6 | 0.00 | 0.06 | 0.01 | 65 | 1012.9 |
| 20260902173515 | 87 | 238 | 2.6 | 7.8 | 0.00 | 0.06 | 0.01 | 68 | 1012.9 |
| 20260902173036 | 86 | 263 | 4.3 | 8.7 | 0.00 | 0.06 | 0.01 | 67 | 1012.9 |
| 20260902172515 | 87 | 239 | 4.3 | 9.6 | 0.00 | 0.06 | 0.01 | 67 | 1013.0 |
| 20260902172015 | 86 | 208 | 5.2 | 9.6 | 0.00 | 0.06 | 0.01 | 66 | 1013.0 |
| 20260902171516 | 86 | 199 | 3.5 | 8.7 | 0.00 | 0.06 | 0.01 | 69 | 1013.0 |
| 20260902171015 | 86 | 202 | 2.6 | 7.8 | 0.00 | 0.06 | 0.01 | 70 | 1013.1 |
| 20260902170515 | 85 | 199 | 4.3 | 7.8 | 0.00 | 0.06 | 0.01 | 71 | 1013.1 |
| 20260902170015 | 85 | 205 | 3.5 | 7.8 | 0.00 | 0.06 | 0.01 | 72 | 1013.0 |
| 20260902165516 | 85 | 226 | 4.3 | 7.0 | 0.00 | 0.06 | 0.01 | 72 | 1013.0 |
| 20260902165015 | 85 | 208 | 2.6 | 8.7 | 0.00 | 0.06 | 0.01 | 71 | 1013.0 |
| 20260902164515 | 85 | 181 | 5.2 | 8.7 | 0.00 | 0.06 | 0.01 | 71 | 1013.1 |
| 20260902164015 | 85 | 203 | 4.3 | 8.7 | 0.00 | 0.06 | 0.01 | 73 | 1013.1 |
| 20260902163515 | 84 | 225 | 3.5 | 7.0 | 0.00 | 0.06 | 0.01 | 73 | 1013.0 |
| 20260902163015 | 84 | 213 | 3.5 | 10.4 | 0.00 | 0.06 | 0.01 | 72 | 1013.0 |
| 20260902162515 | 84 | 177 | 4.3 | 10.4 | 0.00 | 0.06 | 0.01 | 73 | 1012.9 |
| 20260902162015 | 84 | 196 | 4.3 | 8.7 | 0.00 | 0.06 | 0.01 | 74 | 1012.9 |
| 20260902161516 | 84 | 188 | 4.3 | 8.7 | 0.00 | 0.06 | 0.01 | 73 | 1013.0 |
| 20260902161015 | 83 | 198 | 4.3 | 7.0 | 0.00 | 0.06 | 0.01 | 74 | 1013.0 |
| 20260902160535 | 83 | 222 | 2.6 | 6.1 | 0.00 | 0.06 | 0.01 | 76 | 1013.0 |
| 20260902160015 | 83 | 224 | 3.5 | 6.1 | 0.00 | 0.06 | 0.01 | 76 | 1013.1 |
| 20260902155516 | 83 | 223 | 2.6 | 6.1 | 0.00 | 0.06 | 0.01 | 76 | 1013.1 |
| 20260902155015 | 83 | 206 | 1.7 | 6.1 | 0.00 | 0.06 | 0.01 | 76 | 1013.1 |
| 20260902154515 | 82 | 244 | 3.5 | 6.1 | 0.00 | 0.06 | 0.01 | 76 | 1013.2 |
| 20260902154036 | 82 | 225 | 1.7 | 7.8 | 0.00 | 0.06 | 0.01 | 79 | 1013.2 |
| 20260902153516 | 81 | 228 | 3.5 | 7.8 | 0.00 | 0.06 | 0.01 | 77 | 1013.2 |
| 20260902153015 | 81 | 244 | 3.5 | 7.0 | 0.00 | 0.06 | 0.01 | 79 | 1013.2 |
| 20260902152515 | 81 | 251 | 2.6 | 7.0 | 0.00 | 0.06 | 0.01 | 78 | 1013.1 |
| 20260902152015 | 81 | 246 | 3.5 | 7.0 | 0.00 | 0.06 | 0.01 | 79 | 1013.3 |
| 20260902151516 | 81 | 228 | 3.5 | 7.8 | 0.00 | 0.06 | 0.01 | 79 | 1013.2 |
| 20260902151015 | 80 | 251 | 3.5 | 7.8 | 0.00 | 0.06 | 0.01 | 80 | 1013.2 |
| 20260902150515 | 80 | 236 | 4.3 | 7.8 | 0.00 | 0.06 | 0.01 | 81 | 1013.3 |
| 20260902150015 | 80 | 247 | 4.3 | 9.6 | 0.00 | 0.06 | 0.01 | 82 | 1013.3 |
| 20260902145515 | 80 | 262 | 4.3 | 11.3 | 0.00 | 0.06 | 0.01 | 80 | 1013.2 |
| 20260902145015 | 80 | 281 | 5.2 | 11.3 | 0.00 | 0.06 | 0.01 | 81 | 1013.2 |
| 20260902144516 | 79 | 270 | 4.3 | 7.8 | 0.00 | 0.06 | 0.01 | 82 | 1013.2 |
| 20260902144015 | 79 | 264 | 3.5 | 9.6 | 0.00 | 0.06 | 0.01 | 83 | 1013.2 |
| 20260902143515 | 79 | 272 | 4.3 | 10.4 | 0.00 | 0.06 | 0.01 | 83 | 1013.2 |
| 20260902143015 | 78 | 253 | 6.1 | 10.4 | 0.00 | 0.06 | 0.01 | 85 | 1013.3 |
| 20260902142535 | 78 | 254 | 5.2 | 9.6 | 0.00 | 0.06 | 0.01 | 86 | 1013.3 |
| 20260902142015 | 77 | 252 | 4.3 | 8.7 | 0.00 | 0.06 | 0.01 | 88 | 1013.3 |
| 20260902141515 | 77 | 270 | 5.2 | 10.4 | 0.00 | 0.06 | 0.01 | 91 | 1013.5 |
| 20260902141017 | 76 | 269 | 5.2 | 10.4 | 0.00 | 0.06 | 0.01 | 93 | 1013.5 |
| 20260902140517 | 76 | 265 | 1.7 | 6.1 | 0.00 | 0.06 | 0.01 | 94 | 1013.4 |
| 20260902140017 | 76 | 192 | 0.9 | 4.3 | 0.00 | 0.06 | 0.01 | 95 | 1012.8 |
| 20260902135517 | 76 | 192 | 0.9 | 4.3 | 0.00 | 0.06 | 0.01 | 96 | 1012.8 |
| 20260902135018 | 75 | 204 | 1.7 | 4.3 | 0.00 | 0.06 | 0.01 | 96 | 1012.9 |
| 20260902134515 | 75 | 197 | 0.9 | 3.5 | 0.00 | 0.06 | 0.01 | 96 | 1012.9 |
| 20260902134018 | 74 | 207 | 0.9 | 3.5 | 0.00 | 0.06 | 0.01 | 96 | 1012.8 |
| 20260902133517 | 74 | 189 | 1.7 | 3.5 | 0.00 | 0.06 | 0.01 | 96 | 1012.8 |
| 20260902133017 | 74 | 197 | 1.7 | 2.6 | 0.00 | 0.06 | 0.01 | 96 | 1012.9 |
| 20260902132517 | 74 | 157 | 0.0 | 2.6 | 0.00 | 0.06 | 0.01 | 97 | 1012.9 |
| 20260902132017 | 74 | 155 | 0.9 | 2.6 | 0.00 | 0.06 | 0.01 | 97 | 1012.9 |
| 20260902131517 | 74 | 173 | 0.0 | 1.7 | 0.00 | 0.06 | 0.01 | 97 | 1012.9 |
| 20260902131017 | 73 | 196 | 0.0 | 2.6 | 0.00 | 0.06 | 0.01 | 96 | 1013.0 |
| 20260902130517 | 73 | 181 | 0.9 | 2.6 | 0.00 | 0.06 | 0.01 | 97 | 1013.1 |
| 20260902130038 | 73 | 209 | 0.0 | 1.7 | 0.00 | 0.06 | 0.01 | 96 | 1013.1 |
| 20260902125517 | 72 | 183 | 0.0 | 1.7 | 0.00 | 0.06 | 0.01 | 97 | 1013.1 |
| 20260902125018 | 72 | 127 | 0.0 | 3.5 | 0.00 | 0.06 | 0.01 | 96 | 1013.1 |
| 20260902124517 | 71 | 191 | 0.9 | 3.5 | 0.01 | 0.06 | 0.01 | 97 | 1013.3 |
| 20260902124017 | 71 | 55 | 0.9 | 3.5 | 0.01 | 0.06 | 0.01 | 96 | 1013.3 |